Saint Simons Island, GA

11:19 PM EDT on October 20, 2017 (GMT -0400)
McKinnon

Weather History for KSSI - June, 2013

Change the Weather History Date:

Monday, June 3, 2013

  Actual Average Record
Temperature  
Mean Temperature 82 °F 79 °F  
Max Temperature 90 °F 86 °F 103 °F (1985)
Min Temperature 74 °F 71 °F 58 °F (1956)
Degree Days  
Heating Degree Days 0 0  
Month to date heating degree days 0 0  
Since 1 June heating degree days 0 0  
Since 1 July heating degree days 1268 1488  
Cooling Degree Days 17 14  
Month to date cooling degree days 49 40  
Year to date cooling degree days 450 482  
Since 1 June cooling degree days 49 40  
Growing Degree Days 32 (Base 50)    
Moisture  
Dew Point 73 °F    
Average Humidity 72    
Maximum Humidity 91    
Minimum Humidity 53    
Precipitation  
Precipitation 0.40 in 0.14 in 2.30 in (1976)
Month to date precipitation 0.40 0.43  
Year to date precipitation 12.82 15.35  
Snow  
Snow 0.00 in - 0.00 in ()
Month to date snowfall 0.0  
Since 1 June snowfall 0.0  
Since 1 July snowfall 0.0  
Snow Depth 0.00 in    
Sea Level Pressure  
Sea Level Pressure 29.92 in    
Wind  
Wind Speed 7 mph (South)    
Max Wind Speed 17 mph    
Max Gust Speed 32 mph    
Visibility 9 miles    
Events Rain , Thunderstorm    
T = Trace of Precipitation, MM = Missing Value Source: NWS Daily Summary

Daily Weather History Graph

Daily Weather History Graph

Search for Another Location

Airport or City:

Trip Planner

Search our weather history database for the weather conditions in past years. The results will help you decide how hot, cold, wet, or windy it might be!

Date:

Astronomy

Jun. 03, 2013 Rise Set
Actual Time 6:21 AM EDT 8:25 PM EDT
Civil Twilight 5:54 AM EDT 8:53 PM EDT
Nautical Twilight 5:20 AM EDT 9:27 PM EDT
Astronomical Twilight 4:44 AM EDT 10:03 PM EDT
Moon 3:02 AM EDT (6/3) 4:09 PM EDT (6/3)
Length of Visible Light 14h 59m
Length of Day
14h 04m
Waning Crescent, 22% of the Moon is Illuminated
Jun 3
Waning Crescent
Jun 8
New
Jun 16
First Quarter
Jun 23
Full
Jun 30
Last Quarter

Hourly Weather History & Observations

Time (EDT) Temp. Heat Index Dew Point Humidity Pressure Visibility Wind Dir Wind Speed Gust Speed Precip Events Conditions
12:13 AM 78.8 °F - 73.4 °F 83% 29.96 in 10.0 mi SSE 10.4 mph 17.3 mph N/A   Overcast
12:53 AM 79.0 °F - 73.9 °F 84% 29.94 in 10.0 mi SSE 8.1 mph - N/A   Mostly Cloudy
1:04 AM 78.8 °F - 73.4 °F 83% 29.95 in 10.0 mi SSE 10.4 mph 16.1 mph N/A   Mostly Cloudy
1:15 AM 78.8 °F - 75.2 °F 89% 29.95 in 10.0 mi South 9.2 mph - N/A   Mostly Cloudy
1:26 AM 78.8 °F - 75.2 °F 89% 29.95 in 10.0 mi SSE 5.8 mph - N/A   Mostly Cloudy
1:53 AM 79.0 °F - 75.0 °F 88% 29.95 in 10.0 mi South 5.8 mph - N/A   Mostly Cloudy
2:02 AM 78.8 °F - 75.2 °F 89% 29.94 in 10.0 mi South 5.8 mph - N/A   Mostly Cloudy
2:53 AM 79.0 °F - 75.0 °F 88% 29.93 in 10.0 mi South 4.6 mph - N/A   Mostly Cloudy
3:20 AM 78.8 °F - 75.2 °F 89% 29.92 in 10.0 mi SW 5.8 mph - N/A   Scattered Clouds
3:49 AM 78.8 °F - 73.4 °F 83% 29.91 in 10.0 mi SSW 3.5 mph - N/A   Mostly Cloudy
3:53 AM 79.0 °F - 73.9 °F 84% 29.91 in 10.0 mi SSW 3.5 mph - N/A   Mostly Cloudy
4:53 AM 78.1 °F - 73.9 °F 87% 29.90 in 10.0 mi SSW 8.1 mph - N/A   Overcast
5:53 AM 78.1 °F - 73.0 °F 84% 29.90 in 10.0 mi SW 4.6 mph - N/A   Overcast
6:21 AM 77.0 °F - 73.4 °F 89% 29.90 in 10.0 mi Calm Calm - N/A   Scattered Clouds
6:53 AM 77.0 °F - 73.0 °F 88% 29.90 in 10.0 mi Calm Calm - N/A   Clear
7:53 AM 79.0 °F - 73.0 °F 82% 29.92 in 10.0 mi South 6.9 mph - N/A   Clear
8:53 AM 80.1 °F 84.5 °F 73.9 °F 81% 29.94 in 10.0 mi SW 9.2 mph - N/A   Clear
9:53 AM 81.0 °F 84.9 °F 71.1 °F 72% 29.95 in 10.0 mi SW 8.1 mph - N/A   Clear
10:53 AM 84.0 °F 87.8 °F 69.1 °F 61% 29.94 in 10.0 mi SW 5.8 mph - N/A   Clear
11:53 AM 88.0 °F 91.4 °F 68.0 °F 51% 29.94 in 10.0 mi SW 8.1 mph - N/A   Clear
12:53 PM 88.0 °F 94.7 °F 72.0 °F 59% 29.93 in 10.0 mi SSE 10.4 mph - N/A   Partly Cloudy
1:53 PM 84.9 °F 92.1 °F 73.9 °F 69% 29.91 in 10.0 mi SSE 8.1 mph - N/A   Partly Cloudy
2:53 PM 86.0 °F 95.1 °F 75.0 °F 70% 29.89 in 10.0 mi SE 12.7 mph - N/A   Mostly Cloudy
3:40 PM 86.0 °F 95.1 °F 75.2 °F 70% 29.88 in 10.0 mi SSE 16.1 mph 23.0 mph N/A Thunderstorm Clear
3:53 PM 82.9 °F 90.2 °F 75.0 °F 77% 29.88 in 10.0 mi SSE 10.4 mph - N/A Thunderstorm Partly Cloudy
4:05 PM 82.4 °F 89.5 °F 75.2 °F 79% 29.89 in 1.8 mi SSE 9.2 mph - N/A Thunderstorm Unknown
4:23 PM 78.8 °F - 75.2 °F 89% 29.90 in 1.0 mi NE 16.1 mph 21.9 mph 0.18 in Rain , Thunderstorm Heavy Thunderstorms and Rain
4:29 PM 75.2 °F - 71.6 °F 89% 29.90 in 2.0 mi NNE 10.4 mph 24.2 mph 0.25 in Rain , Thunderstorm Light Thunderstorms and Rain
4:32 PM 75.2 °F - 71.6 °F 89% 29.90 in 5.0 mi ENE 4.6 mph 24.2 mph 0.27 in Rain , Thunderstorm Light Thunderstorms and Rain
4:46 PM 78.8 °F - 73.4 °F 83% 29.88 in 10.0 mi East 10.4 mph - 0.37 in Thunderstorm Mostly Cloudy
4:53 PM 78.1 °F - 75.0 °F 90% 29.88 in 10.0 mi East 8.1 mph - 0.40 in Thunderstorm Scattered Clouds
5:15 PM 78.8 °F - 75.2 °F 89% 29.89 in 10.0 mi SE 9.2 mph - N/A   Clear
5:53 PM 79.0 °F - 75.9 °F 90% 29.89 in 10.0 mi Variable 4.6 mph - N/A   Clear
6:05 PM 78.8 °F - 75.2 °F 89% 29.89 in 10.0 mi SSE 6.9 mph - N/A Thunderstorm Clear
6:20 PM 78.8 °F - 75.2 °F 89% 29.89 in 10.0 mi SSE 8.1 mph 16.1 mph N/A   Clear
6:53 PM 79.0 °F - 75.0 °F 88% 29.91 in 10.0 mi South 15.0 mph 25.3 mph 0.00 in Thunderstorm Mostly Cloudy
7:08 PM 77.0 °F - 73.4 °F 89% 29.91 in 10.0 mi SSW 8.1 mph - 0.00 in Rain Light Rain
7:53 PM 77.0 °F - 71.1 °F 82% 29.92 in 10.0 mi SSW 5.8 mph - 0.00 in Thunderstorm Clear
8:10 PM 77.0 °F - 71.6 °F 83% 29.92 in 10.0 mi SSW 4.6 mph - N/A   Clear
8:53 PM 75.9 °F - 69.1 °F 79% 29.89 in 10.0 mi SW 4.6 mph - N/A   Clear
9:53 PM 77.0 °F - 71.1 °F 82% 29.94 in 10.0 mi WSW 8.1 mph - N/A   Clear
10:53 PM 75.0 °F - 71.1 °F 87% 29.97 in 10.0 mi South 4.6 mph - N/A   Clear
11:53 PM 75.0 °F - 71.1 °F 87% 29.97 in 10.0 mi Calm Calm - N/A   Clear